Location: Banff
(51.1667°N, 115.5667°W)
Time: 06:58:26
(UTC+00:00)

S-56A Canister/Altair - Pass Details

Date: 04 December 2020
Orbit: 633 x 2499 km, 38.9° (Epoch: 21 January)

Event Time Altitude Azimuth Distance (km) Brightness Sun altitude
Rises 22:17:53 0° 176° (S) 6,159 13.0 8.0°
Reaches altitude 10° 22:27:11 10° 146° (SE) 4,962 11.9 7.1°
Maximum altitude 22:29:50 11° 135° (SE) 4,800 11.7 6.8°
Drops below altitude 10° 22:32:23 10° 123° (ESE) 4,750 11.5 6.6°
Sets 22:40:13 0° 92° (E) 5,291 11.4 5.7°
